SCP
0 0 0 0 0 0 0 0 0 0 0 0 0 0 0 0 0 0 0 0 0 0 0 0 0 0 0 0 0 0 0 0 0 0 0 0 0 0 0 0 0 0 0
0 0 0 0 0 0 0 0 0 0 0 0 0 0 0 0 0 0 0 0 0 0 0 0 0 0 0 0 0 0 0 0 0 0 0 0 0 0 0 0 0 0 0
0 0 0 0 0 0 0 0 0 0 0 0 0 0 0 0 0 0 0 0 0 0 0 0 0 0 0 0 0 0 0 0 0 0 0 0 0 0 0 0 0 0 0
0 0 0 0 0 0 0 0 0 0 0 0 0 0 0 0 0 0 0 0 0 0 0 0 0 0 0 0 0 0 0 0 0 0 0 0 0 0 0 0 0 0 0
0 0 0 0 0 0 0 0 0 0 0 0 0 0 0 0 0 0 0 0 0 0 0 0 0 0 0 0 0 0 0 0 0 0 0 0 0 0 0 0 0 0 -0
0 0 0 0 0 0 0 0 0 0 0 0 0 0 0 0 0 0 0 0 0 0 0 0 0 0 0 0 0 0 0 0 0 0 0 0 0 0 0 0 0 0 -0
0 0 0 0 0 0 0 0 0 0 0 0 0 0 0 0 0 0 0 0 0 0 0 0 0 0 0 0 0 0 0 0 0 0 0 0 0 0 0 0 0 0 0
0 0 0 0 0 0 0 0 0 0 0 0 0 0 0 0 0 0 0 0 0 0 0 0 0 0 0 0 0 0 0 0 0 0 0 0 0 0 0 0 0 0 0
0 0 0 0 0 0 0 0 0 0 0 0 0 0 0 0 0 0 0 0 0 0 0 0 0 0 0 0 0 0 0 0 0 0 0 0 0 0 0 0 0 0 0
0 0 0 0 0 0 0 0 0 0 0 0 0 0 0 0 0 0 0 0 0 0 0 0 0 0 0 0 0 0 0 0 0 0 0 0 0 0 0 0 0 0 0
0 0 0 0 0 0 0 0 0 0 0 0 0 0 0 0 0 0 0 0 0 0 0 0 0 0 0 0 0 0 0 0 0 0 0 0 0 0 0 0 0 0 0
0 0 0 0 0 0 0 0 0 0 0 0 0 0 0 0 0 0 0 0 0 0 0 0 0 0 0 0 0 0 0 0 0 0 0 -0 -0 0 0 0 0 0 0
0 0 0 0 0 0 0 0 0 0 0 0 0 0 0 0 0 0 0 0 0 0 0 0 0 0 0 0 0 0 0 -0 -0 -0 -0 -0 -0 -0 -0 -0 0 0 0
0 0 0 0 0 0 0 0 0 0 0 0 0 0 0 0 0 0 0 0 0 0 0 0 0 0 0 0 0 0 0 -0 -0 -0 -0 0 0 -0 -0 -0 0 0 0
0 0 0 0 0 0 0 0 0 0 0 0 0 0 0 0 0 0 0 0 0 0 0 0 0 0 0 0 0 0 0 0 0 0 0 0 0 0 0 -0 0 0 0
0 0 0 0 0 0 0 0 0 0 0 0 0 0 0 0 0 0 0 0 0 0 0 0 0 0 0 0 0 0 0 0 0 0 0 0 0 0 0 0 0 0 0
0 0 0 0 0 0 0 0 0 0 0 0 0 0 0 0 0 0 0 0 0 0 0 0 0 0 0 0 0 0 0 0 0 0 0 0 0 0 0 0 0 0 0
0 0 0 0 0 0 0 0 0 0 0 0 0 0 0 0 0 0 0 0 0 0 0 0 0 0 0 0 0 0 0 0 0 0 0 0 0 0 0 0 0 0 0
0 0 0 0 0 0 0 0 0 0 0 0 0 0 0 0 0 0 0 0 0 0 0 0 0 0 0 0 0 0 0 0 0 0 0 0 0 0 0 0 0 0 0
0 0 0 0 0 0 0 0 0 0 0 0 0 0 0 0 0 0 0 0 0 0 0 0 0 0 0 0 0 0 0 0 0 0 0 0 0 0 0 0 0 0 0
0 0 0 0 0 0 0 0 0 0 0 0 0 0 0 0 0 0 0 0 0 0 0 0 0 0 0 0 0 0 0 0 0 0 0 0 0 0 0 0 0 0 0
0 0 0 0 0 0 0 0 0 0 0 0 0 0 0 0 0 0 0 0 0 0 0 0 0 0 0 0 0 0 0 0 0 0 0 0 0 0 0 0 0 0 0
0 0 0 0 0 0 0 0 0 0 0 0 0 0 0 0 0 0 0 0 0 0 0 0 0 0 0 0 0 0 0 0 0 0 0 0 0 0 0 0 0 0 0
0 0 0 0 0 0 0 0 0 0 0 0 0 0 0 0 0 0 0 0 0 0 0 0 0 0 0 0 0 0 0 0 0 0 0 0 0 0 0 0 0 0 0
0 0 0 0 0 0 0 0 0 0 0 0 0 0 0 0 0 0 0 0 0 0 0 0 0 0 0 0 0 0 0 0 0 0 0 0 0 0 0 0 0 0 0
0 0 0 0 0 0 0 0 0 0 0 0 0 0 0 0 0 0 0 0 0 0 0 0 0 0 0 0 0 0 0 0 0 0 0 0 0 0 0 0 0 0 0
Wind_Speed_500mb
25 22 18 17 15 15 15 15 17 18 19 21 24 25 27 30 33 31 32 35 37 40 40 43 44 46 52 53 50 49 47 48 56 62 60 58 59 58 58 60 61 64 67
21 18 16 14 11 9 8 7 8 10 12 14 15 18 20 21 23 26 30 33 35 36 37 38 39 39 40 41 41 42 43 44 51 63 66 65 62 59 59 60 58 55 57
17 14 13 11 8 6 3 2 3 6 9 11 13 14 16 18 20 21 22 24 27 29 31 33 34 36 36 37 39 41 41 43 44 52 61 61 62 65 67 65 65 69 67
14 11 9 8 6 3 1 2 4 6 8 10 11 13 16 18 18 20 22 23 25 26 28 30 32 34 36 37 38 41 42 43 45 48 54 61 66 73 72 76 80 76 81
10 8 6 5 4 3 3 4 5 7 8 10 12 14 17 19 20 17 18 21 22 24 26 28 31 32 35 38 42 45 46 49 53 57 63 66 71 80 80 81 90 94 90
6 6 7 7 7 8 10 10 11 12 12 12 13 14 18 21 25 25 21 23 25 27 29 30 32 34 36 38 41 43 44 48 52 54 58 62 65 68 73 77 82 86 90
6 8 9 9 10 11 12 13 15 15 15 15 16 17 19 22 26 32 24 27 29 30 32 33 34 36 38 43 46 47 48 47 47 51 55 55 65 65 70 73 70 70 79
9 9 10 11 12 13 14 15 16 16 16 16 16 16 18 21 24 30 25 25 27 28 30 32 34 36 37 37 45 50 49 49 47 47 49 53 54 53 50 57 67 83 91
10 13 14 15 15 14 14 14 14 13 13 13 12 13 15 19 23 29 29 26 26 27 29 30 32 32 33 37 43 48 51 51 50 52 52 53 55 54 53 60 66 67 88
10 10 10 12 14 14 12 11 11 10 10 11 12 13 14 16 19 21 23 22 25 26 26 28 31 30 32 35 41 49 53 55 61 65 65 64 62 60 55 49 48 54 61
10 9 8 6 6 7 7 7 7 7 8 9 10 11 12 14 17 19 19 22 25 26 27 29 29 31 35 38 40 45 49 55 60 64 66 67 67 64 61 58 57 59 66
8 8 6 5 4 4 3 3 3 4 5 6 6 8 9 11 13 14 17 19 21 26 28 29 32 33 37 40 44 44 47 51 57 62 66 70 72 72 69 65 62 61 61
8 6 5 5 5 5 5 6 7 7 8 8 9 10 11 13 17 18 20 21 25 26 30 29 32 35 40 43 44 44 49 55 62 67 71 72 70 71 70 68 68 66 68
5 4 2 3 3 6 8 10 12 13 13 14 14 15 18 19 22 24 26 29 31 33 36 37 36 38 41 46 47 48 52 57 62 67 71 72 72 72 73 72 76 77 80
6 4 2 3 5 8 11 12 13 17 20 22 23 25 26 27 30 31 32 34 37 35 42 39 39 43 47 50 51 53 57 60 66 68 71 76 78 79 79 74 72 76 78
8 6 4 4 6 8 10 14 19 19 21 26 29 32 33 34 37 37 38 38 35 34 39 44 46 48 51 54 57 59 59 63 67 72 73 73 78 80 80 79 74 75 77
9 7 4 2 3 6 9 9 4 13 18 21 25 29 32 37 39 41 41 41 39 41 44 47 49 49 50 53 56 61 67 68 72 72 73 74 75 78 77 76 75 76 77
10 8 5 3 3 7 11 16 21 24 21 17 24 30 30 33 34 37 38 41 37 37 44 45 46 46 48 52 55 62 68 73 75 73 74 76 75 76 78 79 79 79 78
11 9 5 2 5 9 14 19 23 27 31 35 36 34 35 36 35 33 34 38 40 40 41 42 45 47 49 52 55 61 69 76 77 75 75 77 76 78 81 83 83 81 78
11 6 2 5 9 14 19 23 27 32 35 39 41 44 45 45 43 43 43 44 45 46 46 46 46 48 51 52 56 62 71 76 77 78 79 79 78 81 84 85 84 84 81
9 6 5 9 13 17 22 28 33 37 40 43 45 47 49 49 47 47 47 47 49 51 51 50 47 47 47 48 53 61 69 73 75 79 80 80 82 86 85 84 85 84 82
12 10 10 13 17 21 25 31 35 41 46 51 51 46 45 44 46 47 47 48 47 49 49 49 47 45 44 46 52 61 67 71 75 79 82 81 85 88 87 86 87 87 84
15 15 17 18 21 25 28 33 39 44 48 51 53 51 45 45 47 49 49 50 49 48 48 48 48 45 42 44 49 58 67 71 76 79 82 83 84 86 88 89 91 93 92
22 21 21 22 26 29 33 36 40 44 49 53 54 50 47 47 49 50 51 53 52 50 49 47 47 46 44 45 49 56 63 71 74 77 77 79 83 89 96 91 91 96 87
26 27 28 29 31 34 37 40 43 47 51 55 55 52 50 51 52 51 52 54 56 55 52 49 46 45 44 46 49 55 62 67 70 72 71 78 91 94 92 91 94 86 83
35 35 35 38 40 42 44 47 49 51 53 56 59 57 54 53 54 55 55 56 57 56 55 52 46 44 44 46 50 56 66 69 74 69 71 81 83 80 79 82 80 83 85
Wind_Direction_500mb
130 135 146 158 173 190 207 219 229 240 248 252 256 259 261 267 271 268 272 272 270 269 269 269 271 275 277 276 275 276 276 277 280 285 287 288 290 292 292 293 292 290 290
118 126 137 144 154 171 189 210 231 253 265 272 275 276 275 272 269 264 262 265 268 271 273 275 277 277 279 281 281 282 283 285 289 292 295 298 299 299 300 299 297 292 289
104 106 110 117 121 128 141 185 256 271 276 279 281 279 276 274 274 272 272 274 277 280 283 283 283 284 286 287 288 287 287 288 289 292 296 303 306 306 304 300 297 294 292
103 101 101 102 99 100 96 284 280 284 286 285 288 289 285 283 283 284 284 284 286 288 291 293 295 297 296 294 292 291 291 290 291 291 294 298 302 303 303 301 296 296 294
79 75 69 64 50 19 329 299 294 294 294 296 293 290 288 289 291 289 292 291 292 295 297 298 302 305 307 307 306 303 304 305 305 304 304 305 307 307 309 308 305 302 299
31 14 8 356 346 332 324 317 311 305 303 301 300 299 302 304 306 304 311 309 307 306 304 304 303 303 305 304 303 303 306 308 308 309 309 310 310 309 308 309 309 309 311
339 334 327 322 315 311 308 306 302 298 296 296 298 298 298 299 305 307 318 312 309 310 310 310 311 311 310 310 308 308 308 307 307 307 307 307 306 307 309 308 307 302 298
318 311 306 301 300 299 298 298 296 295 292 292 292 297 301 306 315 315 333 325 321 321 322 322 325 327 326 327 322 321 320 320 317 310 305 304 303 302 302 294 291 292 293
306 307 305 309 307 306 307 306 307 309 313 315 318 321 318 320 325 328 339 337 331 333 333 336 338 342 348 347 334 332 334 332 327 325 321 317 314 310 305 299 300 303 300
271 274 288 299 302 305 310 314 319 326 331 336 337 337 337 335 332 335 342 348 341 346 351 353 352 358 353 353 344 342 337 335 330 328 326 325 324 321 317 312 309 306 306
301 299 297 294 296 304 313 322 328 332 347 352 350 355 357 355 353 357 4 358 350 349 354 351 352 354 350 350 345 340 335 329 328 326 326 326 326 325 324 320 314 305 298
301 300 298 297 298 309 323 326 334 349 8 15 8 3 4 360 358 354 351 345 345 344 346 348 351 346 349 345 342 339 335 332 330 328 329 330 329 327 323 318 313 307 299
290 300 315 326 336 338 352 356 350 350 353 360 360 352 351 350 343 343 335 340 343 343 338 342 341 343 342 339 340 339 337 336 334 333 332 332 330 328 325 321 316 314 305
248 252 283 317 340 343 340 339 338 335 335 339 343 343 339 337 331 328 335 336 332 335 333 337 333 331 331 333 333 334 335 335 331 328 327 327 326 327 325 323 321 320 314
224 214 214 283 306 312 315 316 321 325 329 334 332 333 333 330 325 330 328 327 328 333 316 322 319 324 327 328 331 333 335 334 333 330 327 328 327 325 326 325 320 318 315
207 220 243 278 299 312 317 325 329 330 325 321 321 322 323 319 317 318 318 319 321 307 313 317 321 323 323 326 329 331 333 334 333 331 328 325 326 323 323 324 322 320 316
207 217 206 218 332 343 338 346 349 338 339 332 331 330 319 313 310 310 312 313 312 309 312 313 314 316 318 322 325 328 331 332 330 328 327 326 323 323 320 320 321 318 317
193 197 203 230 306 330 340 342 346 345 342 343 332 324 320 320 322 316 308 304 306 299 299 303 307 310 315 319 323 326 327 328 328 326 326 325 323 321 321 320 317 315 314
199 207 216 265 328 340 346 346 343 341 338 338 337 333 329 324 323 321 321 316 309 305 303 305 309 311 314 318 320 323 325 326 327 326 325 326 324 321 319 319 318 315 313
210 214 256 319 335 339 337 335 335 335 336 334 333 328 326 326 328 330 326 325 323 315 310 309 311 312 313 316 318 322 324 326 328 326 324 323 323 320 317 317 316 313 310
225 248 284 311 320 325 328 330 332 331 329 328 329 328 325 323 324 326 326 322 320 318 312 307 307 307 309 311 317 321 324 325 327 326 324 323 322 319 319 315 312 311 307
236 259 285 297 307 315 323 326 328 328 329 327 326 322 316 318 321 323 323 321 316 316 311 304 305 307 310 312 319 323 325 327 329 328 324 322 320 318 316 313 311 308 306
247 260 272 289 304 314 320 322 325 326 326 325 326 325 323 320 320 322 321 322 318 317 314 307 306 307 308 312 317 325 326 328 328 326 324 321 318 318 315 309 309 307 301
251 265 279 290 298 308 314 317 318 320 324 328 329 325 321 319 319 320 321 321 319 317 317 311 306 307 309 311 317 324 327 330 327 326 324 320 318 317 316 314 310 304 302
257 266 276 287 294 299 303 309 316 321 325 326 325 322 318 317 319 318 319 319 320 318 319 314 308 306 307 311 318 323 326 327 327 329 328 326 323 322 318 310 306 304 299
263 272 280 284 288 294 300 307 313 316 318 320 322 320 316 315 317 318 318 317 319 318 317 315 310 306 305 309 318 321 328 330 333 335 333 329 325 321 313 309 308 303 301
Wind_Speed_850mb
25 22 18 17 15 15 15 15 17 18 19 21 24 25 27 30 33 31 32 35 37 40 40 43 44 46 52 53 50 49 47 48 56 62 60 58 59 58 58 60 61 64 67
21 18 16 14 11 9 8 7 8 10 12 14 15 18 20 21 23 26 30 33 35 36 37 38 39 39 40 41 41 42 43 44 51 63 66 65 62 59 59 60 58 55 57
17 14 13 11 8 6 3 2 3 6 9 11 13 14 16 18 20 21 22 24 27 29 31 33 34 36 36 37 39 41 41 43 44 52 61 61 62 65 67 65 65 69 67
14 11 9 8 6 3 1 2 4 6 8 10 11 13 16 18 18 20 22 23 25 26 28 30 32 34 36 37 38 41 42 43 45 48 54 61 66 73 72 76 80 76 81
10 8 6 5 4 3 3 4 5 7 8 10 12 14 17 19 20 17 18 21 22 24 26 28 31 32 35 38 42 45 46 49 53 57 63 66 71 80 80 81 90 94 90
6 6 7 7 7 8 10 10 11 12 12 12 13 14 18 21 25 25 21 23 25 27 29 30 32 34 36 38 41 43 44 48 52 54 58 62 65 68 73 77 82 86 90
6 8 9 9 10 11 12 13 15 15 15 15 16 17 19 22 26 32 24 27 29 30 32 33 34 36 38 43 46 47 48 47 47 51 55 55 65 65 70 73 70 70 79
9 9 10 11 12 13 14 15 16 16 16 16 16 16 18 21 24 30 25 25 27 28 30 32 34 36 37 37 45 50 49 49 47 47 49 53 54 53 50 57 67 83 91
10 13 14 15 15 14 14 14 14 13 13 13 12 13 15 19 23 29 29 26 26 27 29 30 32 32 33 37 43 48 51 51 50 52 52 53 55 54 53 60 66 67 88
10 10 10 12 14 14 12 11 11 10 10 11 12 13 14 16 19 21 23 22 25 26 26 28 31 30 32 35 41 49 53 55 61 65 65 64 62 60 55 49 48 54 61
10 9 8 6 6 7 7 7 7 7 8 9 10 11 12 14 17 19 19 22 25 26 27 29 29 31 35 38 40 45 49 55 60 64 66 67 67 64 61 58 57 59 66
8 8 6 5 4 4 3 3 3 4 5 6 6 8 9 11 13 14 17 19 21 26 28 29 32 33 37 40 44 44 47 51 57 62 66 70 72 72 69 65 62 61 61
8 6 5 5 5 5 5 6 7 7 8 8 9 10 11 13 17 18 20 21 25 26 30 29 32 35 40 43 44 44 49 55 62 67 71 72 70 71 70 68 68 66 68
5 4 2 3 3 6 8 10 12 13 13 14 14 15 18 19 22 24 26 29 31 33 36 37 36 38 41 46 47 48 52 57 62 67 71 72 72 72 73 72 76 77 80
6 4 2 3 5 8 11 12 13 17 20 22 23 25 26 27 30 31 32 34 37 35 42 39 39 43 47 50 51 53 57 60 66 68 71 76 78 79 79 74 72 76 78
8 6 4 4 6 8 10 14 19 19 21 26 29 32 33 34 37 37 38 38 35 34 39 44 46 48 51 54 57 59 59 63 67 72 73 73 78 80 80 79 74 75 77
9 7 4 2 3 6 9 9 4 13 18 21 25 29 32 37 39 41 41 41 39 41 44 47 49 49 50 53 56 61 67 68 72 72 73 74 75 78 77 76 75 76 77
10 8 5 3 3 7 11 16 21 24 21 17 24 30 30 33 34 37 38 41 37 37 44 45 46 46 48 52 55 62 68 73 75 73 74 76 75 76 78 79 79 79 78
11 9 5 2 5 9 14 19 23 27 31 35 36 34 35 36 35 33 34 38 40 40 41 42 45 47 49 52 55 61 69 76 77 75 75 77 76 78 81 83 83 81 78
11 6 2 5 9 14 19 23 27 32 35 39 41 44 45 45 43 43 43 44 45 46 46 46 46 48 51 52 56 62 71 76 77 78 79 79 78 81 84 85 84 84 81
9 6 5 9 13 17 22 28 33 37 40 43 45 47 49 49 47 47 47 47 49 51 51 50 47 47 47 48 53 61 69 73 75 79 80 80 82 86 85 84 85 84 82
12 10 10 13 17 21 25 31 35 41 46 51 51 46 45 44 46 47 47 48 47 49 49 49 47 45 44 46 52 61 67 71 75 79 82 81 85 88 87 86 87 87 84
15 15 17 18 21 25 28 33 39 44 48 51 53 51 45 45 47 49 49 50 49 48 48 48 48 45 42 44 49 58 67 71 76 79 82 83 84 86 88 89 91 93 92
22 21 21 22 26 29 33 36 40 44 49 53 54 50 47 47 49 50 51 53 52 50 49 47 47 46 44 45 49 56 63 71 74 77 77 79 83 89 96 91 91 96 87
26 27 28 29 31 34 37 40 43 47 51 55 55 52 50 51 52 51 52 54 56 55 52 49 46 45 44 46 49 55 62 67 70 72 71 78 91 94 92 91 94 86 83
35 35 35 38 40 42 44 47 49 51 53 56 59 57 54 53 54 55 55 56 57 56 55 52 46 44 44 46 50 56 66 69 74 69 71 81 83 80 79 82 80 83 85
Wind_Direction_850mb
130 135 146 158 173 190 207 219 229 240 248 252 256 259 261 267 271 268 272 272 270 269 269 269 271 275 277 276 275 276 276 277 280 285 287 288 290 292 292 293 292 290 290
118 126 137 144 154 171 189 210 231 253 265 272 275 276 275 272 269 264 262 265 268 271 273 275 277 277 279 281 281 282 283 285 289 292 295 298 299 299 300 299 297 292 289
104 106 110 117 121 128 141 185 256 271 276 279 281 279 276 274 274 272 272 274 277 280 283 283 283 284 286 287 288 287 287 288 289 292 296 303 306 306 304 300 297 294 292
103 101 101 102 99 100 96 284 280 284 286 285 288 289 285 283 283 284 284 284 286 288 291 293 295 297 296 294 292 291 291 290 291 291 294 298 302 303 303 301 296 296 294
79 75 69 64 50 19 329 299 294 294 294 296 293 290 288 289 291 289 292 291 292 295 297 298 302 305 307 307 306 303 304 305 305 304 304 305 307 307 309 308 305 302 299
31 14 8 356 346 332 324 317 311 305 303 301 300 299 302 304 306 304 311 309 307 306 304 304 303 303 305 304 303 303 306 308 308 309 309 310 310 309 308 309 309 309 311
339 334 327 322 315 311 308 306 302 298 296 296 298 298 298 299 305 307 318 312 309 310 310 310 311 311 310 310 308 308 308 307 307 307 307 307 306 307 309 308 307 302 298
318 311 306 301 300 299 298 298 296 295 292 292 292 297 301 306 315 315 333 325 321 321 322 322 325 327 326 327 322 321 320 320 317 310 305 304 303 302 302 294 291 292 293
306 307 305 309 307 306 307 306 307 309 313 315 318 321 318 320 325 328 339 337 331 333 333 336 338 342 348 347 334 332 334 332 327 325 321 317 314 310 305 299 300 303 300
271 274 288 299 302 305 310 314 319 326 331 336 337 337 337 335 332 335 342 348 341 346 351 353 352 358 353 353 344 342 337 335 330 328 326 325 324 321 317 312 309 306 306
301 299 297 294 296 304 313 322 328 332 347 352 350 355 357 355 353 357 4 358 350 349 354 351 352 354 350 350 345 340 335 329 328 326 326 326 326 325 324 320 314 305 298
301 300 298 297 298 309 323 326 334 349 8 15 8 3 4 360 358 354 351 345 345 344 346 348 351 346 349 345 342 339 335 332 330 328 329 330 329 327 323 318 313 307 299
290 300 315 326 336 338 352 356 350 350 353 360 360 352 351 350 343 343 335 340 343 343 338 342 341 343 342 339 340 339 337 336 334 333 332 332 330 328 325 321 316 314 305
248 252 283 317 340 343 340 339 338 335 335 339 343 343 339 337 331 328 335 336 332 335 333 337 333 331 331 333 333 334 335 335 331 328 327 327 326 327 325 323 321 320 314
224 214 214 283 306 312 315 316 321 325 329 334 332 333 333 330 325 330 328 327 328 333 316 322 319 324 327 328 331 333 335 334 333 330 327 328 327 325 326 325 320 318 315
207 220 243 278 299 312 317 325 329 330 325 321 321 322 323 319 317 318 318 319 321 307 313 317 321 323 323 326 329 331 333 334 333 331 328 325 326 323 323 324 322 320 316
207 217 206 218 332 343 338 346 349 338 339 332 331 330 319 313 310 310 312 313 312 309 312 313 314 316 318 322 325 328 331 332 330 328 327 326 323 323 320 320 321 318 317
193 197 203 230 306 330 340 342 346 345 342 343 332 324 320 320 322 316 308 304 306 299 299 303 307 310 315 319 323 326 327 328 328 326 326 325 323 321 321 320 317 315 314
199 207 216 265 328 340 346 346 343 341 338 338 337 333 329 324 323 321 321 316 309 305 303 305 309 311 314 318 320 323 325 326 327 326 325 326 324 321 319 319 318 315 313
210 214 256 319 335 339 337 335 335 335 336 334 333 328 326 326 328 330 326 325 323 315 310 309 311 312 313 316 318 322 324 326 328 326 324 323 323 320 317 317 316 313 310
225 248 284 311 320 325 328 330 332 331 329 328 329 328 325 323 324 326 326 322 320 318 312 307 307 307 309 311 317 321 324 325 327 326 324 323 322 319 319 315 312 311 307
236 259 285 297 307 315 323 326 328 328 329 327 326 322 316 318 321 323 323 321 316 316 311 304 305 307 310 312 319 323 325 327 329 328 324 322 320 318 316 313 311 308 306
247 260 272 289 304 314 320 322 325 326 326 325 326 325 323 320 320 322 321 322 318 317 314 307 306 307 308 312 317 325 326 328 328 326 324 321 318 318 315 309 309 307 301
251 265 279 290 298 308 314 317 318 320 324 328 329 325 321 319 319 320 321 321 319 317 317 311 306 307 309 311 317 324 327 330 327 326 324 320 318 317 316 314 310 304 302
257 266 276 287 294 299 303 309 316 321 325 326 325 322 318 317 319 318 319 319 320 318 319 314 308 306 307 311 318 323 326 327 327 329 328 326 323 322 318 310 306 304 299
263 272 280 284 288 294 300 307 313 316 318 320 322 320 316 315 317 318 318 317 319 318 317 315 310 306 305 309 318 321 328 330 333 335 333 329 325 321 313 309 308 303 301